Simultaneous Nadir Overpasses (SNOs) Predictions

Prediction of SNOs between NOAA-20 and PACE Satellite Orbit:

Table of predicted SNOs for the next 14.0 days since TLE Epoch: 4/20/2025
Index Date (NOAA-20) Time (NOAA-20) Lat,Lon (NOAA-20) SZA (NOAA-20 ) Date (PACE) Time (PACE) Lat,Lon (PACE) SZA (PACE ) Distance(km) Time Diff (sec)
1 04/22/2025 05:18:03 79.72, 63.94 69.46 04/22/2025 05:18:46 79.72, 63.85 69.45 1.95 43
2 04/22/2025 06:08:40 -79.47,-126.60 110.99 04/22/2025 06:07:49 -79.48,-126.71 110.95 2.40 51
3 04/24/2025 10:35:14 -79.64, 165.31 111.42 04/24/2025 10:35:07 -79.65, 165.32 111.42 0.41 7
4 04/26/2025 15:01:45 -79.72, 97.98 111.99 04/26/2025 15:02:22 -79.72, 97.97 112.01 0.22 37
5 04/26/2025 15:52:24 79.53, -93.03 67.66 04/26/2025 15:51:28 79.52, -92.91 67.67 2.52 56
6 04/28/2025 20:18:54 79.59,-160.12 67.07 04/28/2025 20:18:42 79.59,-160.19 67.08 1.49 12
7 05/01/2025 00:45:25 79.68, 132.46 66.55 05/01/2025 00:45:56 79.69, 132.35 66.56 2.25 31
8 05/01/2025 01:36:03 -79.45, -58.29 113.86 05/01/2025 01:35:00 -79.46, -58.37 113.81 1.81 63
9 05/03/2025 05:11:57 79.80, 64.70 66.12 05/03/2025 05:13:10 79.80, 64.70 66.09 0.32 73



Historial Predications of SNOs between NOAA-20 and PACE
